| time (UTC) | temp F | wind direction | speed MPH | gust MPH | rain 1hr in | rain 24hr in | rain mn in | humidity % | barometer mb |
| 20260904133053 | 78 | 61 | 2.0 | 6.0 | 0.00 | 0.42 | 0.00 | 80 | 1013.1 |
| 20260904132513 | 78 | 106 | 0.0 | 3.0 | 0.00 | 0.42 | 0.00 | 83 | 1013.0 |
| 20260904132041 | 77 | 18 | 0.0 | 5.0 | 0.00 | 0.42 | 0.00 | 81 | 1013.0 |
| 20260904131507 | 77 | 112 | 3.0 | 6.0 | 0.00 | 0.42 | 0.00 | 82 | 1013.0 |
| 20260904131039 | 77 | 52 | 2.0 | 6.0 | 0.00 | 0.42 | 0.00 | 82 | 1012.9 |
| 20260904130551 | 76 | 121 | 3.0 | 6.0 | 0.00 | 0.42 | 0.00 | 82 | 1013.0 |
| 20260904130023 | 76 | 106 | 2.0 | 5.0 | 0.00 | 0.42 | 0.00 | 84 | 1013.1 |
| 20260904125555 | 76 | 70 | 3.0 | 8.0 | 0.00 | 0.42 | 0.00 | 85 | 1013.1 |
| 20260904125032 | 76 | 55 | 4.0 | 9.0 | 0.00 | 0.42 | 0.00 | 85 | 1013.2 |
| 20260904124503 | 75 | 27 | 5.0 | 9.0 | 0.00 | 0.42 | 0.00 | 87 | 1013.2 |
| 20260904124032 | 75 | 62 | 3.0 | 7.0 | 0.00 | 0.42 | 0.00 | 89 | 1013.1 |
| 20260904123509 | 74 | 79 | 2.0 | 8.0 | 0.00 | 0.42 | 0.00 | 89 | 1013.1 |
| 20260904123101 | 74 | 21 | 4.0 | 8.0 | 0.00 | 0.42 | 0.00 | 89 | 1013.2 |
| 20260904122515 | 74 | 69 | 2.0 | 4.0 | 0.00 | 0.42 | 0.00 | 90 | 1013.3 |
| 20260904122045 | 73 | 52 | 2.0 | 4.0 | 0.00 | 0.42 | 0.00 | 90 | 1013.3 |
| 20260904121518 | 73 | 75 | 1.0 | 3.0 | 0.00 | 0.42 | 0.00 | 90 | 1013.2 |
| 20260904121048 | 72 | 61 | 0.0 | 3.0 | 0.00 | 0.42 | 0.00 | 92 | 1012.8 |
| 20260904120516 | 72 | 40 | 0.0 | 2.0 | 0.00 | 0.42 | 0.00 | 94 | 1012.9 |
| 20260904120050 | 71 | 128 | 0.0 | 2.0 | 0.00 | 0.42 | 0.00 | 93 | 1013.0 |
| 20260904115522 | 71 | 128 | 0.0 | 2.0 | 0.00 | 0.42 | 0.00 | 94 | 1013.0 |
| 20260904115054 | 70 | 128 | 0.0 | 2.0 | 0.00 | 0.42 | 0.00 | 96 | 1013.0 |
| 20260904114540 | 70 | 145 | 1.0 | 2.0 | 0.00 | 0.42 | 0.00 | 96 | 1012.9 |
| 20260904114044 | 70 | 18 | 0.0 | 2.0 | 0.00 | 0.42 | 0.00 | 96 | 1012.8 |
| 20260904113517 | 70 | 18 | 0.0 | 0.0 | 0.00 | 0.42 | 0.00 | 96 | 1012.9 |
| 20260904113053 | 70 | 234 | 0.0 | 0.0 | 0.00 | 0.43 | 0.00 | 96 | 1012.9 |
| 20260904112533 | 70 | 234 | 0.0 | 0.0 | 0.00 | 0.43 | 0.00 | 95 | 1012.9 |
| 20260904112008 | 69 | 234 | 0.0 | 0.0 | 0.00 | 0.43 | 0.00 | 95 | 1012.9 |
| 20260904111550 | 70 | 234 | 0.0 | 0.0 | 0.00 | 0.43 | 0.00 | 95 | 1012.9 |
| 20260904111055 | 69 | 234 | 0.0 | 0.0 | 0.00 | 0.43 | 0.00 | 95 | 1012.9 |
| 20260904110529 | 70 | 234 | 0.0 | 1.0 | 0.00 | 0.43 | 0.00 | 94 | 1012.8 |
| 20260904110015 | 70 | 77 | 0.0 | 4.0 | 0.00 | 0.43 | 0.00 | 94 | 1012.8 |
| 20260904105539 | 70 | 86 | 0.0 | 5.0 | 0.00 | 0.43 | 0.00 | 94 | 1012.7 |
| 20260904105009 | 69 | 104 | 2.0 | 6.0 | 0.00 | 0.43 | 0.00 | 95 | 1012.8 |
| 20260904104543 | 69 | 81 | 2.0 | 9.0 | 0.00 | 0.43 | 0.00 | 95 | 1012.8 |
| 20260904104013 | 69 | 109 | 5.0 | 9.0 | 0.00 | 0.43 | 0.00 | 96 | 1012.7 |
| 20260904103546 | 69 | 90 | 4.0 | 8.0 | 0.00 | 0.43 | 0.00 | 96 | 1012.6 |
| 20260904103021 | 69 | 71 | 1.0 | 5.0 | 0.00 | 0.43 | 0.00 | 97 | 1012.2 |
| 20260904102554 | 69 | 71 | 2.0 | 8.0 | 0.00 | 0.43 | 0.00 | 97 | 1012.2 |
| 20260904102028 | 69 | 75 | 5.0 | 10.0 | 0.00 | 0.43 | 0.00 | 98 | 1012.3 |
| 20260904101549 | 69 | 81 | 4.0 | 10.0 | 0.00 | 0.43 | 0.00 | 98 | 1012.4 |
| 20260904101016 | 69 | 85 | 4.0 | 6.0 | 0.00 | 0.43 | 0.00 | 98 | 1012.3 |
| 20260904100552 | 69 | 128 | 3.0 | 5.0 | 0.00 | 0.43 | 0.00 | 98 | 1012.1 |
| 20260904100019 | 69 | 96 | 2.0 | 4.0 | 0.00 | 0.43 | 0.00 | 98 | 1012.0 |
| 20260904095555 | 69 | 207 | 1.0 | 3.0 | 0.00 | 0.43 | 0.00 | 98 | 1011.9 |
| 20260904095014 | 69 | 184 | 0.0 | 4.0 | 0.00 | 0.43 | 0.00 | 98 | 1011.8 |
| 20260904094548 | 69 | 155 | 2.0 | 4.0 | 0.00 | 0.43 | 0.00 | 98 | 1011.8 |
| 20260904094018 | 69 | 138 | 1.0 | 4.0 | 0.00 | 0.43 | 0.00 | 98 | 1011.9 |
| 20260904093552 | 69 | 128 | 2.0 | 4.0 | 0.00 | 0.43 | 0.00 | 98 | 1011.8 |
| 20260904093027 | 69 | 138 | 0.0 | 3.0 | 0.00 | 0.43 | 0.00 | 98 | 1011.6 |
| 20260904092600 | 69 | 138 | 1.0 | 4.0 | 0.00 | 0.43 | 0.00 | 98 | 1011.6 |
| 20260904092507 | 69 | 138 | 1.0 | 4.0 | 0.00 | 0.43 | 0.00 | 98 | 1011.7 |
| 20260904092034 | 69 | 150 | 2.0 | 4.0 | 0.00 | 0.43 | 0.00 | 98 | 1011.7 |
| 20260904091553 | 69 | 159 | 0.0 | 1.0 | 0.00 | 0.43 | 0.00 | 98 | 1011.5 |
| 20260904091024 | 69 | 159 | 0.0 | 2.0 | 0.00 | 0.43 | 0.00 | 98 | 1011.4 |
| 20260904090558 | 69 | 159 | 0.0 | 2.0 | 0.00 | 0.43 | 0.00 | 98 | 1011.4 |
| 20260904090036 | 69 | 159 | 1.0 | 5.0 | 0.00 | 0.43 | 0.00 | 98 | 1011.3 |
| 20260904085508 | 68 | 237 | 1.0 | 5.0 | 0.00 | 0.43 | 0.00 | 98 | 1011.1 |
| 20260904085042 | 68 | 280 | 2.0 | 4.0 | 0.00 | 0.43 | 0.00 | 98 | 1011.1 |
| 20260904084521 | 68 | 203 | 0.0 | 0.0 | 0.00 | 0.43 | 0.00 | 98 | 1011.4 |
| 20260904084050 | 68 | 138 | 0.0 | 0.0 | 0.00 | 0.43 | 0.00 | 98 | 1011.4 |
| 20260904083532 | 68 | 182 | 0.0 | 0.0 | 0.00 | 0.43 | 0.00 | 98 | 1011.4 |
| 20260904083004 | 68 | 182 | 0.0 | 0.0 | 0.00 | 0.43 | 0.00 | 98 | 1011.5 |
| 20260904082538 | 68 | 102 | 0.0 | 0.0 | 0.00 | 0.43 | 0.00 | 98 | 1011.4 |
| 20260904082010 | 68 | 102 | 0.0 | 0.0 | 0.00 | 0.43 | 0.00 | 98 | 1011.5 |
| 20260904081542 | 68 | 102 | 0.0 | 0.0 | 0.00 | 0.43 | 0.00 | 98 | 1011.6 |
| 20260904081016 | 69 | 102 | 0.0 | 0.0 | 0.00 | 0.43 | 0.00 | 98 | 1011.7 |
| 20260904080550 | 69 | 229 | 0.0 | 0.0 | 0.00 | 0.43 | 0.00 | 98 | 1011.6 |
| 20260904080006 | 68 | 254 | 0.0 | 0.0 | 0.00 | 0.43 | 0.00 | 98 | 1011.6 |
| 20260904075520 | 69 | 321 | 0.0 | 1.0 | 0.00 | 0.43 | 0.00 | 97 | 1011.7 |
| 20260904075053 | 69 | 321 | 0.0 | 4.0 | 0.00 | 0.43 | 0.00 | 97 | 1011.6 |
| 20260904074531 | 68 | 329 | 2.0 | 4.0 | 0.00 | 0.43 | 0.00 | 97 | 1011.6 |
| 20260904074100 | 69 | 231 | 0.0 | 4.0 | 0.00 | 0.43 | 0.00 | 97 | 1011.6 |
| 20260904074004 | 69 | 242 | 0.0 | 4.0 | 0.00 | 0.43 | 0.00 | 97 | 1011.4 |
| 20260904073538 | 69 | 219 | 2.0 | 4.0 | 0.00 | 0.43 | 0.00 | 97 | 1011.2 |
| 20260904073007 | 69 | 261 | 0.0 | 4.0 | 0.00 | 0.43 | 0.00 | 97 | 1011.3 |
| 20260904072521 | 69 | 223 | 1.0 | 3.0 | 0.00 | 0.43 | 0.00 | 98 | 1011.3 |
| 20260904072056 | 69 | 210 | 1.0 | 4.0 | 0.00 | 0.43 | 0.00 | 97 | 1011.3 |
| 20260904071535 | 69 | 253 | 2.0 | 4.0 | 0.00 | 0.43 | 0.00 | 98 | 1011.5 |
| 20260904071100 | 69 | 194 | 1.0 | 3.0 | 0.00 | 0.43 | 0.00 | 98 | 1011.5 |
| 20260904071004 | 69 | 194 | 2.0 | 4.0 | 0.00 | 0.43 | 0.00 | 98 | 1011.4 |
| 20260904070537 | 69 | 243 | 1.0 | 4.0 | 0.00 | 0.43 | 0.00 | 97 | 1011.3 |
| 20260904070048 | 69 | 229 | 1.0 | 4.0 | 0.00 | 0.43 | 0.00 | 97 | 1011.4 |
| 20260904065520 | 69 | 228 | 2.0 | 4.0 | 0.00 | 0.43 | 0.00 | 98 | 1011.3 |
| 20260904065056 | 69 | 204 | 0.0 | 4.0 | 0.00 | 0.43 | 0.00 | 97 | 1011.2 |
| 20260904064537 | 69 | 235 | 2.0 | 4.0 | 0.00 | 0.43 | 0.00 | 97 | 1011.1 |
| 20260904064011 | 69 | 155 | 1.0 | 3.0 | 0.00 | 0.43 | 0.00 | 98 | 1011.1 |
| 20260904063540 | 69 | 213 | 0.0 | 3.0 | 0.00 | 0.43 | 0.00 | 97 | 1011.1 |
| 20260904063010 | 69 | 236 | 1.0 | 4.0 | 0.00 | 0.43 | 0.00 | 97 | 1011.0 |
| 20260904062550 | 69 | 294 | 2.0 | 4.0 | 0.00 | 0.43 | 0.00 | 97 | 1010.9 |
| 20260904062020 | 69 | 219 | 2.0 | 4.0 | 0.00 | 0.43 | 0.00 | 97 | 1010.9 |
| 20260904061601 | 69 | 213 | 2.0 | 4.0 | 0.00 | 0.43 | 0.00 | 97 | 1010.8 |
| 20260904061025 | 69 | 180 | 2.0 | 4.0 | 0.00 | 0.43 | 0.00 | 97 | 1010.7 |
| 20260904060534 | 69 | 172 | 1.0 | 3.0 | 0.01 | 0.43 | 0.00 | 97 | 1010.8 |
| 20260904060016 | 69 | 119 | 0.0 | 0.0 | 0.01 | 0.43 | 0.00 | 97 | 1010.8 |
| 20260904055551 | 69 | 119 | 0.0 | 0.0 | 0.02 | 0.43 | 0.00 | 97 | 1010.8 |
| 20260904055020 | 69 | 119 | 0.0 | 0.0 | 0.02 | 0.43 | 0.00 | 97 | 1010.8 |
| 20260904054601 | 69 | 119 | 0.0 | 0.0 | 0.03 | 0.43 | 0.00 | 97 | 1011.0 |
| 20260904054034 | 69 | 119 | 0.0 | 0.0 | 0.04 | 0.43 | 0.00 | 97 | 1011.1 |
| 20260904053547 | 69 | 119 | 0.0 | 3.0 | 0.04 | 0.43 | 0.00 | 97 | 1011.1 |
| 20260904053031 | 69 | 119 | 1.0 | 3.0 | 0.05 | 0.43 | 0.43 | 97 | 1011.3 |
| 20260904052554 | 69 | 138 | 0.0 | 0.0 | 0.05 | 0.43 | 0.43 | 97 | 1011.5 |
| 20260904052035 | 69 | 186 | 0.0 | 0.0 | 0.05 | 0.43 | 0.43 | 97 | 1011.8 |
| 20260904051505 | 69 | 254 | 0.0 | 0.0 | 0.06 | 0.43 | 0.43 | 96 | 1012.0 |
| 20260904051039 | 69 | 254 | 0.0 | 0.0 | 0.06 | 0.43 | 0.43 | 96 | 1012.0 |
| 20260904050553 | 69 | 296 | 0.0 | 3.0 | 0.06 | 0.42 | 0.42 | 96 | 1012.3 |
| 20260904050025 | 70 | 306 | 0.0 | 3.0 | 0.06 | 0.42 | 0.42 | 96 | 1012.3 |
| 20260904045559 | 69 | 308 | 0.0 | 2.0 | 0.05 | 0.41 | 0.41 | 96 | 1012.5 |
| 20260904045501 | 69 | 283 | 1.0 | 3.0 | 0.05 | 0.41 | 0.41 | 96 | 1012.6 |
| 20260904045035 | 70 | 50 | 0.0 | 3.0 | 0.05 | 0.41 | 0.41 | 96 | 1013.0 |
| 20260904044512 | 70 | 39 | 1.0 | 4.0 | 0.04 | 0.40 | 0.40 | 96 | 1013.4 |
| 20260904044038 | 70 | 64 | 2.0 | 5.0 | 0.03 | 0.39 | 0.39 | 95 | 1013.5 |
| 20260904043511 | 70 | 316 | 3.0 | 6.0 | 0.03 | 0.39 | 0.39 | 95 | 1013.2 |
| 20260904043045 | 70 | 195 | 2.0 | 6.0 | 0.03 | 0.39 | 0.39 | 95 | 1013.0 |
| 20260904042517 | 70 | 252 | 1.0 | 6.0 | 0.02 | 0.38 | 0.38 | 95 | 1013.1 |
| 20260904042050 | 70 | 236 | 1.0 | 4.0 | 0.02 | 0.38 | 0.38 | 95 | 1013.7 |
| 20260904041520 | 70 | 287 | 1.0 | 8.0 | 0.02 | 0.37 | 0.37 | 94 | 1014.0 |
| 20260904041035 | 70 | 116 | 2.0 | 8.0 | 0.10 | 0.36 | 0.37 | 94 | 1014.4 |
| 20260904040509 | 70 | 31 | 3.0 | 8.0 | 0.32 | 0.36 | 0.36 | 94 | 1014.7 |
| 20260904040041 | 70 | 300 | 3.0 | 7.0 | 0.35 | 0.36 | 0.36 | 94 | 1014.4 |
| 20260904035509 | 70 | 69 | 1.0 | 9.0 | 0.35 | 0.36 | 0.36 | 93 | 1013.8 |
| 20260904035025 | 70 | 48 | 4.0 | 8.0 | 0.35 | 0.36 | 0.36 | 94 | 1014.2 |
| 20260904034612 | 70 | 79 | 2.0 | 8.0 | 0.35 | 0.36 | 0.36 | 94 | 1014.2 |
| 20260904034501 | 70 | 79 | 4.0 | 8.0 | 0.35 | 0.36 | 0.36 | 94 | 1014.2 |
| 20260904034036 | 70 | 77 | 0.0 | 4.0 | 0.35 | 0.36 | 0.36 | 94 | 1014.5 |
| 20260904033508 | 70 | 150 | 0.0 | 8.0 | 0.35 | 0.36 | 0.36 | 93 | 1014.6 |
| 20260904033040 | 70 | 28 | 4.0 | 16.0 | 0.35 | 0.36 | 0.36 | 92 | 1014.9 |
| 20260904032553 | 70 | 92 | 6.0 | 18.0 | 0.35 | 0.36 | 0.36 | 92 | 1014.7 |
| 20260904032027 | 70 | 95 | 10.0 | 30.0 | 0.35 | 0.36 | 0.36 | 91 | 1014.6 |
| 20260904031505 | 71 | 88 | 10.0 | 32.0 | 0.34 | 0.35 | 0.35 | 91 | 1014.2 |
| 20260904031037 | 72 | 88 | 16.0 | 32.0 | 0.28 | 0.28 | 0.28 | 89 | 1014.5 |
| 20260904030507 | 77 | 77 | 20.0 | 30.0 | 0.02 | 0.03 | 0.04 | 79 | 1014.5 |
| 20260904030041 | 81 | 36 | 11.0 | 18.0 | 0.00 | 0.01 | 0.01 | 72 | 1013.7 |
| 20260904025513 | 81 | 128 | 8.0 | 17.0 | 0.00 | 0.01 | 0.01 | 75 | 1012.6 |
| 20260904025047 | 81 | 138 | 8.0 | 16.0 | 0.00 | 0.01 | 0.01 | 82 | 1012.4 |
| 20260904024521 | 81 | 148 | 4.0 | 10.0 | 0.00 | 0.01 | 0.01 | 87 | 1012.0 |
| 20260904024059 | 80 | 102 | 5.0 | 10.0 | 0.00 | 0.01 | 0.01 | 90 | 1012.2 |
| 20260904023534 | 80 | 150 | 4.0 | 8.0 | 0.00 | 0.01 | 0.01 | 92 | 1012.5 |
| 20260904023005 | 80 | 76 | 0.0 | 0.0 | 0.00 | 0.01 | 0.01 | 92 | 1012.1 |
| 20260904022522 | 80 | 34 | 0.0 | 0.0 | 0.00 | 0.01 | 0.01 | 92 | 1012.0 |
| 20260904022053 | 80 | 34 | 0.0 | 1.0 | 0.00 | 0.01 | 0.01 | 91 | 1012.3 |
| 20260904021526 | 80 | 34 | 0.0 | 1.0 | 0.00 | 0.01 | 0.01 | 91 | 1012.3 |
| 20260904021055 | 80 | 34 | 0.0 | 2.0 | 0.00 | 0.01 | 0.01 | 91 | 1012.1 |
| 20260904020533 | 80 | 34 | 0.0 | 2.0 | 0.00 | 0.01 | 0.01 | 91 | 1012.1 |
| 20260904020005 | 81 | 52 | 0.0 | 2.0 | 0.00 | 0.01 | 0.01 | 91 | 1012.1 |
| 20260904015520 | 81 | 317 | 0.0 | 5.0 | 0.00 | 0.01 | 0.01 | 91 | 1012.2 |
| 20260904015051 | 80 | 336 | 0.0 | 5.0 | 0.00 | 0.01 | 0.01 | 91 | 1012.3 |
| 20260904014524 | 80 | 332 | 0.0 | 3.0 | 0.00 | 0.01 | 0.01 | 91 | 1012.2 |
| 20260904014054 | 81 | 62 | 0.0 | 3.0 | 0.00 | 0.01 | 0.01 | 90 | 1012.2 |
| 20260904013514 | 81 | 47 | 0.0 | 2.0 | 0.00 | 0.01 | 0.01 | 90 | 1012.2 |
| 20260904013037 | 81 | 146 | 0.0 | 2.0 | 0.00 | 0.01 | 0.01 | 90 | 1012.2 |
| 20260904012509 | 81 | 320 | 0.0 | 4.0 | 0.00 | 0.01 | 0.01 | 90 | 1012.2 |
| 20260904012044 | 81 | 10 | 1.0 | 4.0 | 0.00 | 0.01 | 0.01 | 89 | 1012.2 |
| 20260904011530 | 81 | 317 | 2.0 | 4.0 | 0.00 | 0.01 | 0.01 | 89 | 1012.1 |
| 20260904011050 | 81 | 279 | 0.0 | 4.0 | 0.00 | 0.01 | 0.01 | 89 | 1012.1 |
| 20260904010505 | 81 | 29 | 1.0 | 3.0 | 0.00 | 0.01 | 0.01 | 89 | 1012.1 |
| 20260904010050 | 82 | 94 | 0.0 | 4.0 | 0.00 | 0.01 | 0.01 | 88 | 1012.0 |
| 20260904005510 | 82 | 13 | 0.0 | 5.0 | 0.00 | 0.01 | 0.01 | 88 | 1011.8 |
| 20260904005049 | 82 | 308 | 1.0 | 5.0 | 0.00 | 0.01 | 0.01 | 88 | 1012.0 |
| 20260904004521 | 82 | 263 | 1.0 | 5.0 | 0.00 | 0.01 | 0.01 | 88 | 1012.0 |
| 20260904004053 | 82 | 261 | 2.0 | 5.0 | 0.00 | 0.01 | 0.01 | 87 | 1012.1 |
| 20260904003510 | 82 | 327 | 0.0 | 2.0 | 0.00 | 0.01 | 0.01 | 87 | 1012.1 |
| 20260904003041 | 82 | 232 | 0.0 | 2.0 | 0.00 | 0.01 | 0.01 | 87 | 1012.2 |
| 20260904002513 | 82 | 86 | 0.0 | 4.0 | 0.00 | 0.01 | 0.01 | 87 | 1012.2 |
| 20260904002051 | 82 | 238 | 1.0 | 4.0 | 0.00 | 0.01 | 0.01 | 86 | 1012.0 |
| 20260904001523 | 83 | 267 | 1.0 | 5.0 | 0.00 | 0.01 | 0.01 | 86 | 1012.3 |
| 20260904001056 | 83 | 300 | 1.0 | 3.0 | 0.00 | 0.01 | 0.01 | 86 | 1012.3 |
| 20260904000512 | 83 | 295 | 1.0 | 3.0 | 0.00 | 0.01 | 0.01 | 85 | 1012.4 |
| 20260904000103 | 83 | 232 | 0.0 | 1.0 | 0.00 | 0.01 | 0.01 | 85 | 1012.5 |
| 20260903235520 | 83 | 305 | 0.0 | 4.0 | 0.00 | 0.01 | 0.01 | 85 | 1012.5 |
| 20260903235059 | 83 | 269 | 0.0 | 4.0 | 0.00 | 0.01 | 0.01 | 84 | 1012.4 |
| 20260903235001 | 83 | 287 | 0.0 | 4.0 | 0.00 | 0.01 | 0.01 | 84 | 1012.4 |
| 20260903234536 | 84 | 65 | 0.0 | 4.0 | 0.00 | 0.01 | 0.01 | 84 | 1012.4 |
| 20260903234049 | 84 | 65 | 0.0 | 4.0 | 0.00 | 0.01 | 0.01 | 83 | 1012.3 |
| 20260903233525 | 84 | 334 | 0.0 | 3.0 | 0.00 | 0.01 | 0.01 | 83 | 1012.2 |
| 20260903233052 | 84 | 43 | 0.0 | 3.0 | 0.00 | 0.01 | 0.01 | 82 | 1012.1 |
| 20260903232522 | 85 | 57 | 0.0 | 3.0 | 0.00 | 0.01 | 0.01 | 81 | 1011.9 |
| 20260903232059 | 85 | 29 | 1.0 | 3.0 | 0.00 | 0.01 | 0.01 | 81 | 1011.8 |
| 20260903231533 | 86 | 36 | 0.0 | 6.0 | 0.00 | 0.01 | 0.01 | 80 | 1011.6 |
| 20260903231002 | 86 | 263 | 0.0 | 5.0 | 0.00 | 0.01 | 0.01 | 80 | 1011.5 |
| 20260903230518 | 86 | 265 | 1.0 | 5.0 | 0.00 | 0.01 | 0.01 | 79 | 1011.6 |
| 20260903230051 | 87 | 302 | 1.0 | 5.0 | 0.00 | 0.01 | 0.01 | 78 | 1011.4 |
| 20260903225526 | 87 | 344 | 2.0 | 5.0 | 0.00 | 0.01 | 0.01 | 78 | 1011.7 |
| 20260903225058 | 88 | 27 | 0.0 | 3.0 | 0.00 | 0.01 | 0.01 | 77 | 1011.7 |
| 20260903224539 | 88 | 289 | 0.0 | 3.0 | 0.00 | 0.01 | 0.01 | 77 | 1011.6 |
| 20260903224008 | 88 | 48 | 0.0 | 6.0 | 0.00 | 0.01 | 0.01 | 76 | 1011.5 |
| 20260903223525 | 89 | 313 | 3.0 | 6.0 | 0.00 | 0.01 | 0.01 | 75 | 1011.3 |
| 20260903223100 | 89 | 264 | 2.0 | 7.0 | 0.00 | 0.01 | 0.01 | 75 | 1011.3 |
| 20260903223002 | 89 | 279 | 1.0 | 7.0 | 0.00 | 0.01 | 0.01 | 75 | 1011.3 |
| 20260903222530 | 89 | 292 | 2.0 | 8.0 | 0.00 | 0.01 | 0.01 | 74 | 1011.3 |
| 20260903222103 | 89 | 259 | 3.0 | 8.0 | 0.00 | 0.01 | 0.01 | 73 | 1011.3 |
| 20260903222003 | 89 | 275 | 3.0 | 10.0 | 0.00 | 0.01 | 0.01 | 73 | 1011.3 |
| 20260903221538 | 90 | 50 | 2.0 | 6.0 | 0.00 | 0.01 | 0.01 | 72 | 1011.3 |
| 20260903221010 | 90 | 48 | 3.0 | 8.0 | 0.00 | 0.01 | 0.01 | 71 | 1011.3 |
| 20260903220544 | 90 | 261 | 3.0 | 8.0 | 0.00 | 0.01 | 0.01 | 71 | 1011.2 |
| 20260903220020 | 90 | 45 | 3.0 | 7.0 | 0.00 | 0.01 | 0.01 | 71 | 1011.1 |
| 20260903215549 | 90 | 244 | 2.0 | 9.0 | 0.00 | 0.01 | 0.01 | 70 | 1011.2 |
| 20260903215018 | 90 | 348 | 2.0 | 9.0 | 0.00 | 0.01 | 0.01 | 69 | 1011.2 |
| 20260903214550 | 90 | 306 | 3.0 | 8.0 | 0.00 | 0.01 | 0.01 | 69 | 1011.3 |
| 20260903214030 | 91 | 333 | 2.0 | 8.0 | 0.00 | 0.01 | 0.01 | 69 | 1011.3 |
| 20260903213543 | 91 | 297 | 3.0 | 6.0 | 0.00 | 0.01 | 0.01 | 69 | 1011.4 |
| 20260903213012 | 91 | 296 | 3.0 | 6.0 | 0.00 | 0.01 | 0.01 | 68 | 1011.4 |
| 20260903212538 | 91 | 300 | 2.0 | 6.0 | 0.00 | 0.01 | 0.01 | 69 | 1011.5 |
| 20260903212012 | 91 | 329 | 1.0 | 6.0 | 0.00 | 0.01 | 0.01 | 69 | 1011.4 |
| 20260903211612 | 91 | 308 | 1.0 | 6.0 | 0.00 | 0.01 | 0.01 | 69 | 1011.4 |
| 20260903211100 | 91 | 289 | 0.0 | 8.0 | 0.00 | 0.01 | 0.01 | 69 | 1011.5 |
| 20260903210538 | 91 | 301 | 2.0 | 7.0 | 0.00 | 0.01 | 0.01 | 69 | 1011.5 |
| 20260903210011 | 90 | 284 | 1.0 | 7.0 | 0.00 | 0.01 | 0.01 | 68 | 1011.6 |
| 20260903205544 | 90 | 263 | 3.0 | 7.0 | 0.00 | 0.01 | 0.01 | 67 | 1011.5 |
| 20260903205014 | 90 | 235 | 4.0 | 7.0 | 0.00 | 0.01 | 0.01 | 69 | 1011.5 |
| 20260903204548 | 90 | 13 | 2.0 | 8.0 | 0.00 | 0.01 | 0.01 | 67 | 1011.5 |
| 20260903204020 | 89 | 305 | 3.0 | 8.0 | 0.00 | 0.01 | 0.01 | 66 | 1011.6 |
| 20260903203551 | 89 | 30 | 4.0 | 8.0 | 0.00 | 0.01 | 0.01 | 67 | 1011.7 |
| 20260903203027 | 89 | 9 | 4.0 | 10.0 | 0.00 | 0.01 | 0.01 | 65 | 1011.8 |
| 20260903202540 | 90 | 30 | 5.0 | 10.0 | 0.00 | 0.01 | 0.01 | 65 | 1011.8 |
| 20260903202012 | 90 | 25 | 3.0 | 8.0 | 0.00 | 0.01 | 0.01 | 65 | 1012.0 |
| 20260903201546 | 90 | 308 | 3.0 | 8.0 | 0.00 | 0.01 | 0.01 | 65 | 1012.1 |
| 20260903201016 | 89 | 9 | 2.0 | 9.0 | 0.00 | 0.01 | 0.01 | 67 | 1012.2 |
| 20260903200548 | 90 | 327 | 4.0 | 9.0 | 0.00 | 0.01 | 0.01 | 69 | 1012.2 |
| 20260903200006 | 89 | 306 | 2.0 | 8.0 | 0.00 | 0.01 | 0.01 | 69 | 1012.4 |
| 20260903195519 | 89 | 23 | 4.0 | 10.0 | 0.00 | 0.01 | 0.01 | 69 | 1012.3 |
| 20260903195053 | 89 | 355 | 5.0 | 10.0 | 0.00 | 0.01 | 0.01 | 69 | 1012.4 |
| 20260903194532 | 89 | 294 | 5.0 | 8.0 | 0.00 | 0.01 | 0.01 | 69 | 1012.4 |
| 20260903194005 | 89 | 360 | 2.0 | 8.0 | 0.00 | 0.01 | 0.01 | 71 | 1012.5 |
| 20260903193537 | 89 | 346 | 2.0 | 8.0 | 0.00 | 0.01 | 0.01 | 70 | 1012.7 |
| 20260903193054 | 89 | 350 | 4.0 | 8.0 | 0.00 | 0.01 | 0.01 | 69 | 1012.7 |
| 20260903192527 | 88 | 45 | 2.0 | 8.0 | 0.00 | 0.01 | 0.01 | 71 | 1012.8 |
| 20260903192059 | 88 | 12 | 2.0 | 8.0 | 0.00 | 0.01 | 0.01 | 72 | 1012.8 |
| 20260903192003 | 88 | 40 | 4.0 | 9.0 | 0.00 | 0.01 | 0.01 | 71 | 1012.9 |
| 20260903191538 | 88 | 278 | 2.0 | 10.0 | 0.00 | 0.01 | 0.01 | 73 | 1012.9 |
| 20260903191005 | 88 | 27 | 4.0 | 10.0 | 0.00 | 0.01 | 0.01 | 70 | 1013.1 |
| 20260903190544 | 88 | 348 | 5.0 | 9.0 | 0.00 | 0.01 | 0.01 | 69 | 1013.3 |
| 20260903190010 | 88 | 288 | 1.0 | 8.0 | 0.00 | 0.01 | 0.01 | 73 | 1013.2 |
| 20260903185543 | 87 | 313 | 3.0 | 9.0 | 0.00 | 0.01 | 0.01 | 72 | 1013.2 |
| 20260903185011 | 87 | 321 | 3.0 | 11.0 | 0.00 | 0.01 | 0.01 | 71 | 1013.4 |
| 20260903184544 | 87 | 350 | 7.0 | 11.0 | 0.00 | 0.01 | 0.01 | 70 | 1013.5 |
| 20260903184015 | 87 | 323 | 3.0 | 8.0 | 0.00 | 0.01 | 0.01 | 72 | 1013.5 |
| 20260903183547 | 87 | 273 | 3.0 | 7.0 | 0.00 | 0.01 | 0.01 | 74 | 1013.5 |
| 20260903183023 | 87 | 311 | 1.0 | 9.0 | 0.00 | 0.04 | 0.01 | 72 | 1013.6 |
| 20260903182554 | 86 | 10 | 4.0 | 9.0 | 0.00 | 0.04 | 0.01 | 72 | 1013.5 |
| 20260903182034 | 86 | 283 | 3.0 | 8.0 | 0.00 | 0.04 | 0.01 | 73 | 1013.5 |
| 20260903181505 | 86 | 28 | 3.0 | 8.0 | 0.00 | 0.04 | 0.01 | 76 | 1013.5 |
| 20260903181033 | 86 | 350 | 1.0 | 9.0 | 0.00 | 0.04 | 0.01 | 76 | 1013.6 |
| 20260903180508 | 85 | 7 | 4.0 | 10.0 | 0.00 | 0.04 | 0.01 | 75 | 1013.7 |
| 20260903180040 | 84 | 258 | 5.0 | 10.0 | 0.00 | 0.04 | 0.01 | 76 | 1013.9 |
| 20260903175507 | 84 | 311 | 2.0 | 8.0 | 0.00 | 0.04 | 0.01 | 78 | 1014.1 |
| 20260903175042 | 83 | 5 | 2.0 | 9.0 | 0.00 | 0.04 | 0.01 | 79 | 1014.3 |
| 20260903174534 | 83 | 346 | 2.0 | 6.0 | 0.00 | 0.04 | 0.01 | 81 | 1014.5 |
| 20260903174049 | 83 | 295 | 2.0 | 5.0 | 0.00 | 0.04 | 0.01 | 82 | 1014.4 |
| 20260903173519 | 82 | 61 | 3.0 | 5.0 | 0.00 | 0.04 | 0.01 | 82 | 1014.4 |
| 20260903173056 | 82 | 42 | 3.0 | 7.0 | 0.00 | 0.04 | 0.01 | 81 | 1014.6 |
| 20260903172531 | 81 | 26 | 3.0 | 7.0 | 0.00 | 0.04 | 0.01 | 81 | 1014.8 |
| 20260903172059 | 81 | 27 | 1.0 | 4.0 | 0.00 | 0.04 | 0.01 | 84 | 1014.7 |
| 20260903172001 | 81 | 5 | 1.0 | 4.0 | 0.00 | 0.04 | 0.01 | 83 | 1014.6 |
| 20260903171517 | 81 | 338 | 2.0 | 5.0 | 0.00 | 0.04 | 0.01 | 81 | 1014.7 |
| 20260903171049 | 81 | 244 | 2.0 | 5.0 | 0.00 | 0.04 | 0.01 | 82 | 1014.5 |
| 20260903170521 | 81 | 284 | 1.0 | 4.0 | 0.00 | 0.04 | 0.01 | 82 | 1014.9 |
| 20260903170110 | 81 | 305 | 0.0 | 7.0 | 0.00 | 0.04 | 0.01 | 83 | 1015.0 |
| 20260903165533 | 81 | 22 | 1.0 | 7.0 | 0.00 | 0.04 | 0.01 | 84 | 1015.3 |
| 20260903165005 | 81 | 13 | 3.0 | 6.0 | 0.00 | 0.04 | 0.01 | 80 | 1015.6 |
| 20260903164542 | 81 | 6 | 3.0 | 5.0 | 0.00 | 0.04 | 0.01 | 81 | 1015.5 |
| 20260903164010 | 81 | 234 | 0.0 | 3.0 | 0.00 | 0.04 | 0.01 | 83 | 1015.5 |
| 20260903163544 | 80 | 16 | 1.0 | 3.0 | 0.00 | 0.04 | 0.01 | 82 | 1015.6 |
| 20260903163017 | 80 | 49 | 0.0 | 5.0 | 0.00 | 0.04 | 0.01 | 83 | 1015.6 |
| 20260903162548 | 80 | 73 | 2.0 | 7.0 | 0.00 | 0.04 | 0.01 | 82 | 1015.8 |
| 20260903162019 | 80 | 284 | 4.0 | 8.0 | 0.00 | 0.04 | 0.01 | 85 | 1015.7 |
| 20260903161551 | 80 | 40 | 4.0 | 8.0 | 0.00 | 0.04 | 0.01 | 83 | 1015.6 |
| 20260903161029 | 79 | 354 | 4.0 | 8.0 | 0.00 | 0.04 | 0.01 | 83 | 1015.6 |
| 20260903160559 | 79 | 39 | 4.0 | 8.0 | 0.00 | 0.04 | 0.01 | 86 | 1015.7 |
| 20260903160501 | 79 | 36 | 4.0 | 8.0 | 0.00 | 0.04 | 0.01 | 84 | 1015.8 |
| 20260903160040 | 79 | 65 | 4.0 | 8.0 | 0.00 | 0.04 | 0.01 | 85 | 1015.8 |
| 20260903155509 | 78 | 133 | 2.0 | 10.0 | 0.00 | 0.04 | 0.01 | 85 | 1015.9 |
| 20260903155045 | 78 | 138 | 3.0 | 10.0 | 0.00 | 0.04 | 0.01 | 86 | 1015.8 |
| 20260903154600 | 78 | 113 | 7.0 | 10.0 | 0.00 | 0.04 | 0.01 | 84 | 1016.0 |
| 20260903154501 | 78 | 81 | 7.0 | 10.0 | 0.00 | 0.04 | 0.01 | 85 | 1016.1 |
| 20260903154030 | 78 | 62 | 4.0 | 10.0 | 0.00 | 0.04 | 0.01 | 87 | 1016.1 |
| 20260903153505 | 78 | 128 | 4.0 | 13.0 | 0.00 | 0.04 | 0.01 | 86 | 1016.0 |
| 20260903153044 | 78 | 138 | 6.0 | 13.0 | 0.00 | 0.04 | 0.01 | 87 | 1016.2 |
| 20260903152509 | 77 | 59 | 2.0 | 10.0 | 0.00 | 0.04 | 0.01 | 90 | 1016.2 |
| 20260903152042 | 77 | 88 | 6.0 | 12.0 | 0.00 | 0.04 | 0.01 | 90 | 1016.8 |
| 20260903151558 | 77 | 72 | 4.0 | 12.0 | 0.00 | 0.04 | 0.01 | 90 | 1016.4 |
| 20260903151025 | 77 | 96 | 3.0 | 4.0 | 0.00 | 0.04 | 0.01 | 89 | 1016.6 |
| 20260903150600 | 77 | 12 | 0.0 | 4.0 | 0.00 | 0.04 | 0.01 | 89 | 1015.7 |
| 20260903150502 | 77 | 12 | 0.0 | 4.0 | 0.00 | 0.04 | 0.01 | 90 | 1015.7 |
| 20260903150036 | 76 | 294 | 0.0 | 4.0 | 0.00 | 0.04 | 0.01 | 90 | 1015.7 |
| 20260903145508 | 76 | 274 | 0.0 | 5.0 | 0.00 | 0.04 | 0.01 | 91 | 1015.4 |
| 20260903145045 | 76 | 313 | 0.0 | 4.0 | 0.00 | 0.04 | 0.01 | 91 | 1015.3 |
| 20260903144511 | 76 | 43 | 1.0 | 4.0 | 0.00 | 0.04 | 0.01 | 90 | 1015.6 |
| 20260903144045 | 76 | 359 | 1.0 | 3.0 | 0.00 | 0.04 | 0.01 | 91 | 1015.6 |
| 20260903143517 | 75 | 319 | 0.0 | 3.0 | 0.00 | 0.04 | 0.01 | 91 | 1015.6 |
| 20260903143053 | 75 | 69 | 0.0 | 4.0 | 0.00 | 0.04 | 0.01 | 91 | 1015.6 |
| 20260903142527 | 75 | 69 | 2.0 | 6.0 | 0.00 | 0.04 | 0.01 | 92 | 1015.9 |
| 20260903142052 | 75 | 31 | 3.0 | 6.0 | 0.00 | 0.04 | 0.01 | 92 | 1016.0 |
| 20260903141525 | 75 | 57 | 1.0 | 4.0 | 0.00 | 0.04 | 0.01 | 93 | 1015.5 |
| 20260903141059 | 74 | 25 | 1.0 | 6.0 | 0.00 | 0.04 | 0.01 | 93 | 1015.4 |
| 20260903141003 | 74 | 59 | 2.0 | 6.0 | 0.00 | 0.04 | 0.01 | 93 | 1015.4 |
| 20260903140535 | 74 | 282 | 2.0 | 6.0 | 0.00 | 0.04 | 0.01 | 93 | 1015.6 |
| 20260903140009 | 74 | 6 | 3.0 | 6.0 | 0.00 | 0.04 | 0.01 | 94 | 1015.8 |
| 20260903135543 | 74 | 5 | 0.0 | 6.0 | 0.00 | 0.04 | 0.01 | 93 | 1015.5 |
| 20260903135057 | 73 | 21 | 3.0 | 6.0 | 0.00 | 0.04 | 0.01 | 94 | 1015.5 |
| 20260903134529 | 73 | 40 | 2.0 | 4.0 | 0.00 | 0.04 | 0.01 | 94 | 1015.5 |
| 20260903134102 | 73 | 317 | 2.0 | 4.0 | 0.00 | 0.04 | 0.01 | 95 | 1015.3 |
| 20260903134006 | 73 | 314 | 3.0 | 5.0 | 0.00 | 0.04 | 0.01 | 95 | 1015.3 |
| 20260903133533 | 73 | 305 | 0.0 | 4.0 | 0.00 | 0.04 | 0.01 | 95 | 1015.3 |